TimeCET,TemperatureF,Dew PointF,Humidity,Sea Level PressureIn,VisibilityMPH,Wind Direction,Wind SpeedMPH,Gust SpeedMPH,PrecipitationIn,Events,Conditions,WindDirDegrees,DateUTC
12:00 AM,50.0,39.2,66,30.04,-9999.0,WSW,4.6,-,N/A,,Clear,250,2012-10-28 23:00:00
12:30 AM,50.0,37.4,62,30.04,-9999.0,WSW,5.8,-,N/A,,Clear,250,2012-10-28 23:30:00
1:00 AM,49,35,47,30.05,12,WSW,6.9,,,,,240,2012-10-29 00:00:00
1:00 AM,50.0,37.4,62,30.04,-9999.0,WSW,4.6,-,N/A,,Clear,240,2012-10-29 00:00:00
1:30 AM,50.0,37.4,62,30.04,-9999.0,West,5.8,-,N/A,,Clear,260,2012-10-29 00:30:00
2:00 AM,50.0,35.6,58,30.01,-9999.0,WSW,8.1,-,N/A,,Clear,240,2012-10-29 01:00:00
2:30 AM,48.2,35.6,62,30.04,-9999.0,WSW,5.8,-,N/A,,Clear,250,2012-10-29 01:30:00
3:30 AM,48.2,35.6,62,30.01,-9999.0,Calm,Calm,-,N/A,,Clear,0,2012-10-29 02:30:00
4:00 AM,50.0,35.6,58,30.01,-9999.0,Variable,1.2,-,N/A,,Clear,0,2012-10-29 03:00:00
4:30 AM,48.2,35.6,62,29.98,-9999.0,WSW,9.2,-,N/A,,Clear,250,2012-10-29 03:30:00
5:00 AM,48.2,35.6,62,29.98,-9999.0,West,9.2,-,N/A,,Clear,260,2012-10-29 04:00:00
5:30 AM,48.2,35.6,62,29.98,-9999.0,West,9.2,-,N/A,,Clear,270,2012-10-29 04:30:00
6:00 AM,48.2,33.8,58,29.98,-9999.0,West,9.2,-,N/A,,Clear,270,2012-10-29 05:00:00
6:30 AM,46.4,35.6,66,29.98,-9999.0,WSW,8.1,-,N/A,,Clear,240,2012-10-29 05:30:00
7:00 AM,45,35,58,30.00,19,South,5.8,,,,,190,2012-10-29 06:00:00
7:00 AM,46.4,35.6,66,29.98,-9999.0,West,5.8,-,N/A,,Clear,270,2012-10-29 06:00:00
7:30 AM,44.6,35.6,71,29.98,-9999.0,SSW,6.9,-,N/A,,Clear,210,2012-10-29 06:30:00
8:00 AM,44.6,37.4,76,30.01,-9999.0,SW,8.1,-,N/A,,Clear,220,2012-10-29 07:00:00
8:30 AM,48.2,35.6,62,30.01,-9999.0,SW,8.1,-,N/A,,Clear,220,2012-10-29 07:30:00
9:00 AM,51.8,37.4,58,30.01,-9999.0,WSW,8.1,-,N/A,,Clear,250,2012-10-29 08:00:00
9:30 AM,57.2,33.8,41,30.01,-9999.0,WNW,8.1,-,N/A,,Clear,290,2012-10-29 08:30:00
10:00 AM,59.0,32.0,36,30.01,-9999.0,WNW,9.2,-,N/A,,Clear,300,2012-10-29 09:00:00
10:30 AM,60.8,33.8,36,30.01,-9999.0,WNW,5.8,-,N/A,,Clear,290,2012-10-29 09:30:00
11:00 AM,62.6,33.8,34,30.01,-9999.0,WNW,3.5,-,N/A,,Clear,300,2012-10-29 10:00:00
11:30 AM,64.4,30.2,28,29.98,-9999.0,Variable,2.3,-,N/A,,Clear,0,2012-10-29 10:30:00
12:00 PM,64.4,30.2,28,29.98,-9999.0,Variable,1.2,-,N/A,,Clear,0,2012-10-29 11:00:00
12:30 PM,64.4,28.4,26,29.98,-9999.0,Variable,2.3,-,N/A,,Clear,0,2012-10-29 11:30:00
1:00 PM,66,25,11,29.96,19,WNW,2.3,,,,Clear,290,2012-10-29 12:00:00
1:00 PM,66.2,26.6,23,29.95,-9999.0,Variable,2.3,-,N/A,,Clear,0,2012-10-29 12:00:00
1:30 PM,66.2,30.2,26,29.95,-9999.0,SW,4.6,-,N/A,,Clear,230,2012-10-29 12:30:00
2:00 PM,66.2,30.2,26,29.92,-9999.0,Variable,5.8,-,N/A,,Clear,0,2012-10-29 13:00:00
2:30 PM,68.0,28.4,23,29.92,-9999.0,Variable,1.2,-,N/A,,Clear,0,2012-10-29 13:30:00
3:00 PM,68.0,30.2,24,29.89,-9999.0,Calm,Calm,-,N/A,,Clear,0,2012-10-29 14:00:00
3:30 PM,68.0,32.0,26,29.89,-9999.0,Variable,1.2,-,N/A,,Clear,0,2012-10-29 14:30:00
4:00 PM,66.2,37.4,35,29.89,-9999.0,South,4.6,-,N/A,,Clear,170,2012-10-29 15:00:00
4:30 PM,64.4,37.4,37,29.89,-9999.0,Variable,2.3,-,N/A,,Clear,0,2012-10-29 15:30:00
5:00 PM,62.6,39.2,42,29.89,-9999.0,SSE,4.6,-,N/A,,Clear,160,2012-10-29 16:00:00
5:30 PM,62.6,41.0,45,29.89,-9999.0,Variable,2.3,-,N/A,,Clear,0,2012-10-29 16:30:00
6:00 PM,60.8,42.8,52,29.89,-9999.0,Variable,2.3,-,N/A,,Clear,0,2012-10-29 17:00:00
6:30 PM,59.0,42.8,55,29.89,-9999.0,Calm,Calm,-,N/A,,Clear,0,2012-10-29 17:30:00
7:00 PM,58,41,42,29.91,12,North,3.5,,,,,350,2012-10-29 18:00:00
7:00 PM,57.2,44.6,63,29.89,-9999.0,Variable,2.3,-,N/A,,Clear,0,2012-10-29 18:00:00
7:30 PM,57.2,42.8,59,29.89,-9999.0,Variable,2.3,-,N/A,,Clear,0,2012-10-29 18:30:00
8:00 PM,53.6,44.6,72,29.89,-9999.0,Variable,1.2,-,N/A,,Clear,0,2012-10-29 19:00:00
8:30 PM,55.4,44.6,67,29.89,-9999.0,Variable,1.2,-,N/A,,Clear,0,2012-10-29 19:30:00
9:30 PM,53.6,42.8,67,29.89,-9999.0,Variable,2.3,-,N/A,,Clear,0,2012-10-29 20:30:00
10:00 PM,55.4,42.8,63,29.89,-9999.0,Variable,1.2,-,N/A,,Clear,0,2012-10-29 21:00:00
10:30 PM,53.6,42.8,67,29.89,-9999.0,Variable,1.2,-,N/A,,Clear,0,2012-10-29 21:30:00
11:00 PM,53.6,42.8,67,29.89,-9999.0,Variable,1.2,-,N/A,,Clear,0,2012-10-29 22:00:00
11:30 PM,53.6,44.6,72,29.86,-9999.0,Calm,Calm,-,N/A,,Clear,0,2012-10-29 22:30:00